www.pogodaiklimat.ru

Погода и климат >> Архив погоды >> Россия >> Свердловская область >> Ирбит


ПОГОДА в Ирбите

  • Прогноз погоды в Ирбите
  • Монитор погоды в Ирбите
  • Климат города

АРХИВ ПОГОДЫ в Ирбите

Время (UTC), дата Ветер
(напр.,м/с)
 
Видим.   Явления Облачность Т
(С)
Тd
(С)
f
(%)
Тe
(С)
Тes
(С)
Комфортность P
(гПа)
Po
(гПа)
Тmin
(С)
Tmax
(С)
R
(мм)
S
(см)
03 16.03 Ю 5
{10}
50 км 5/0
[Ac trans Ci]
-7.0 -10.9 74 -14 -14 1028.3 1018.5 -7.4 38
06 16.03 Ю 4 50 км 8/0
[Ci fib]
-3.5 -9.6 63 -9 -7 1028.3 1018.7
09 16.03 Ю 5 50 км 8/0
[Ci fib]
+0.2 -8.1 54 -5 -3 1027.5 1018.1
12 16.03 Ю 6-10
{10}
50 км 6/0
[Ci fib]
-0.1 -7.8 56 -6 -6 1027.6 1018.1
15 16.03 Ю 4
{11}
50 км 6/0
[Ci fib]
-2.7 -7.8 68 -8 -8 1028.0 1018.4 +0.7
18 16.03 Ю 4
{11}
30 км ясно -4.6 -8.5 74 -11 -11 1028.2 1018.6
21 16.03 З 4 50 км ясно -6.4 -9.3 80 -13 -13 1028.2 1018.5
00 17.03 З 3 50 км 1/0
[Ci fib]
-8.3 -10.6 83 -14 -14 1028.8 1019.1
03 17.03 Ю 3 20 км 1/0
[Ci fib]
-8.7 -11.2 82 -15 -14 1029.7 1019.9 -8.7 38
06 17.03 ЮЗ 3 50 км ясно -3.5 -9.6 63 -8 -4 1029.7 1020.1
09 17.03 Ю 3 50 км ясно +2.1 -7.8 48 -1 +3 1029.0 1019.6
12 17.03 Ю 3 50 км ясно +3.8 -8.2 41 +1 +2 1028.6 1019.2
15 17.03 ЮЗ 3 50 км ясно +0.3 -7.8 54 -4 -4 1028.8 1019.3 +3.8
18 17.03 Ю 3 50 км ясно -2.5 -8.1 65 -7 -7 1028.8 1019.2
00 18.03 Ю 2 50 км ясно -6.9 -11.6 69 -11 -11 1029.0 1019.3
03 18.03 Ю 1 50 км 3/0
[Ci sp]
-8.5 -13.3 68 -11 -10 1029.5 1019.7 -8.9 38
06 18.03 Ю 2 50 км 10/0
[Cs]
-4.5 -11.6 58 -8 -4 1029.3 1019.6
09 18.03 Ю 3 50 км 10/0
[Cs]
-0.6 -11.2 45 -5 -1 1028.6 1019.1
12 18.03 Ю 2 50 км 8/0
[Cs]
+0.7 -10.9 41 -2 -1 1026.0 1018.6
15 18.03 Ю 3 50 км 10/0
[Ac trans Cs]
-1.9 -11.5 48 -6 -6 1028.2 1018.7 +1.4
18 18.03 Ю 3 50 км 10/0
[Ci sp]
-3.5 -13.9 44 -8 -8 1028.5 1018.9
21 18.03 З 4 >70 км 10/3 600 м
[Sc Ci sp]
-5.6 -16.1 43 -11 -11 1028.6 1018.9
00 19.03 ЮВ 3 50 км 10/0
[Cs]
-8.5 -16.6 52 -14 -14 1029.3 1019.5
03 19.03 Ю 2 50 км 3/1 600 м
[Sc Ci sp]
-10.0 -17.5 54 -14 -14 1030.3 1020.4 -10.1 38
06 19.03 Ю 3 50 км ясно -4.4 -14.9 44 -9 -5 1030.6 1020.9
09 19.03 Ю 6 50 км 1/0
[Ci sp]
+1.0 -15.6 28 -4 -2 1029.8 1020.3
12 19.03 Ю 5-13
{13}
50 км ясно +2.6 -14.8 26 -2 -1 1029.5 1020.1
15 19.03 Ю 3
{13}
50 км ясно -2.3 -14.5 39 -7 -7 1030.1 1020.5 +2.8
18 19.03 Ю 2 50 км ясно -4.0 -17.3 35 -7 -7 1030.5 1020.8
21 19.03 Ю 3 50 км ясно -6.1 -18.5 37 -11 -11 1031.0 1021.3
00 20.03 Ю 2 50 км ясно -7.9 -18.8 41 -12 -12 1031.3 1021.5
03 20.03 Ю 2 50 км 4/0
[Ci sp]
-8.4 -18.3 45 -12 -12 1032.2 1022.4 -9.4 37
06 20.03 ЮВ 3 50 км 4/0
[Ci fib]
-2.5 -17.8 30 -7 -2 1032.2 1022.6
09 20.03 Ю 4 50 км 3/0
[Ci fib]
+1.1 -16.2 26 -3 +1 1031.9 1022.4
12 20.03 Ю 4 50 км 9/0
[Cs]
-0.0 -14.9 32 -4 -4 1031.7 1022.2
15 20.03 ЮВ 4 50 км 8/0
[Ac trans Ci fib]
-2.8 -17.5 31 -8 -8 1032.2 1022.6 +1.6
18 20.03 Ю 3 50 км 3/0
[Ci fib]
-4.0 -19.3 29 -8 -8 1032.2 1022.5
21 20.03 Ю 3 50 км 4/0
[Ci fib]
-6.5 -20.2 33 -11 -11 1032.5 1022.7
00 21.03 ЮВ 2 50 км 3/0
[Ci fib]
-9.3 -19.5 43 -13 -13 1033.0 1023.1
03 21.03 ЮВ 2 50 км 3/0
[Ac trans Ci fib]
-10.7 -18.6 52 -15 -14 1033.5 1023.6 -11.1 36
06 21.03 штиль 0 50 км ясно -1.7 -17.0 30 -2 +6 1033.4 1023.8
09 21.03 З 3 50 км ясно +1.5 -12.6 34 -2 +3 1033.3 1023.8
12 21.03 ЮВ 3 50 км ясно +1.6 -11.6 37 -2 -0 1033.0 1023.5
15 21.03 Ю 2 50 км 3/0
[Ci sp]
-2.5 -13.8 42 -6 -6 1033.4 1023.8 +2.0
18 21.03 Ю 2 50 км ясно -4.6 -14.8 45 -8 -8 1033.6 1023.9
21 21.03 Ю 1 50 км ясно -5.7 -17.2 40 -7 -7 1033.7 1024.0
00 22.03 Ю 2 50 км ясно -7.1 -15.4 52 -11 -11 1034.3 1024.5
03 22.03 ЮВ 1 50 км 3/0
[Ci sp]
-7.7 -14.5 58 -10 -9 1034.7 1024.9 -9.4 36
06 22.03 Ю 2 50 км 3/0
[Ac trans Ci fib]
-1.4 -12.8 42 -4 +1 1034.6 1025.0
09 22.03 Ю 2 50 км 4/0
[Ac trans Ci fib]
+3.2 -12.7 30 +1 +6 1033.4 1024.0
12 22.03 Ю 3 50 км 3/0
[Ci sp]
+3.6 -12.7 29 +1 +2 1032.8 1023.4
15 22.03 ЮВ 3 50 км 3/0
[Ci fib]
-1.0 -11.6 44 -5 -5 1032.7 1023.1 +4.0
18 22.03 ЮВ 4 50 км ясно -1.6 -13.1 41 -7 -7 1032.0 1022.4
21 22.03 Ю 2 50 км ясно -3.8 -14.1 45 -7 -7 1032.0 1022.3

 

Местоположение метеостанции Ирбит (Свердловская область, Россия): широта 57.62 долгота 62.97 высота над уровнем моря 74 м.

В архиве по умолчанию представлена погода в Ирбите за последнюю неделю. Архивные данные за месяц целиком и за предыдущие месяцы, начиная с января 2011 года, Вы можете получить, выбрав интересующий диапазон дат из раскрывающегося списка и нажав кнопку "Ввод!".

Внимание! Время в таблицах - всемирное. Для получения местного времени необходимо прибавить поправку, которая в Ирбите равна 5 ч.

Смотрите также архив погоды в соседних городах и на ближайших метеорологических станциях:

Погода в Туринске (Свердловская область, Россия) (64 км)
Погода в Артемовском (Свердловская область, Россия) (69 км)
Погода в Алапаевске (Свердловская область, Россия) (80 км)
Погода в Камышлове (Свердловская область, Россия) (87 км)
Погода в Тугулыме (Свердловская область, Россия) (119 км)
Погода в Таборах (Свердловская область, Россия) (135 км)
Погода в Тавде (Свердловская область, Россия) (145 км)
Погода в Каменск-Уральском (Свердловская область, Россия) (148 км)
Погода в Далматово (Курганская область, Россия) (150 км)
Погода в Верхнем Дуброво (Свердловская область, Россия) (151 км)

Пояснения к столбцам:

Ветер - указаны скорость ветра в м/с - средняя за 10 мин, порывы в срок и между сроками (в фигурных скобках) и направление, откуда дует ветер: С - северный, СВ - северо-восточный, В - восточный, ЮВ - юго-восточный, Ю - южный, ЮЗ - юго-западный, З - западный, СЗ - северо-западный.
Видимость - горизонтальная дальность видимости в метрах или километрах. При видимости от 1 до 10 км при отсутствии осадков обычно наблюдается дымка, при ухудшении видимости до 1 км и менее - туман. В сухую погоду видимость может ухудшаться дымом, пылью или мглою.
Явления - указаны атмосферные явления, наблюдавшиеся в срок или в последний час перед сроком; фигурными скобками обозначены явления, наблюдавшиеся между сроками (за 1-3 часа до срока); квадратными скобками обозначены град или гололедные отложения с указанием их диаметра в мм.
Облачность - указаны через наклонную черту общая и нижняя облачность в баллах и высота нижней границы облаков в метрах; квадратными скобками обозначены формы облаков: Ci - перистые, Cs - перисто-слоистые, Cc - перисто-кучевые, Ac - высококучевые, As - высокослоистые, Sc - слоисто-кучевые, Ns - слоисто-дождевые, Cu - кучевые, Cb - кучево-дождевые. Подробнее классификацию облаков см. в Атласе облаков (PDF).
T - Температура воздуха - температура, измеренная на высоте 2 м над землей.
Td - Температура точки росы - температура, при понижении до которой содержащийся в воздухе водяной пар достигнет насыщения.
f - Относительная влажность воздуха - влажноcть воздуха, измеренная на высоте 2 м над землей.
Te - Эффективная температура - температура, которую ощущает одетый по сезону человек в тени. Характеристика душности погоды. При расчете учитывается влияние влажности воздуха и скорости ветра на теплоощущения человека.
Tes - Эффективная температура на солнце - температура, которую ощущает человек, с поправкой на солнечный нагрев. Характеристика знойности погоды. Зависит от высоты солнца над горизонтом, облачности и скорости ветра. Ночью, в пасмурную погоду, а также при ветре 12 м/с и более поправка равна нулю.
P - Атмосферное давление - приведенное к уровню моря атмосферное давление.
Po - Атмосферное давление - измеренное на уровне метеостанции атмосферное давление.
Tmin - Минимальная температура - минимум температуры воздуха на высоте 2 м над землей.
Tmax - Максимальная температура - максимум температуры воздуха на высоте 2 м над землей.
R - Количество осадков - Количество выпавших осадков, мм. При наведении курсора мыши на число - период времени, за который выпало указанное количество осадков.
S - Снежный покров - Высота снежного покрова, см. При наведении курсора мыши на число - состояние снежного покрова и степень покрытия местности в баллах.